M I D A S
Marine Information and Data Acquisition System
Tripno 1592 of the Zeeleeuw from 2008-10-21 08:12:37 to 2008-10-21 09:31:44
Back to CruiseResearch ActivitiesStationsMapUnderway DataData graphs

EquipmentUnitsComment
TimeDGPSUTC
LatitudeDGPSDM.mWGS84
LongitudeDGPSDM.mWGS84
HeadingGyrodeg 
SOGDGPSknotsSpeed over ground
COGDGPSdegCourse over ground
DepthEcho soundermeters200 kHz
Missing or incorrect values are displayed as -999
Navigation data collected by the RV Zeeleeuw from 2008-10-21 08:12:37 to 2008-10-21 09:31:44
Time Latitude Longitude Heading SOG COG Depth
2008-10-21 08:12:50 51°13.624 2°56.048 124.7 0.1 122 -999
2008-10-21 08:13:00 51°13.624 2°56.048 124.2   350 -999
2008-10-21 08:13:10 51°13.624 2°56.049 124.2   350 -999
2008-10-21 08:13:20 51°13.624 2°56.049 124.2   350 -999
2008-10-21 08:13:30 51°13.624 2°56.049 124.2   350 -999
2008-10-21 08:13:40 51°13.624 2°56.049 124.2   350 -999
2008-10-21 08:13:50 51°13.624 2°56.048 124.2   350 -999
2008-10-21 08:14:00 51°13.624 2°56.048 117.5   208 -999
2008-10-21 08:14:10 51°13.624 2°56.048 117.5   208 -999
2008-10-21 08:14:20 51°13.624 2°56.048 117.5   208 -999
2008-10-21 08:14:30 51°13.623 2°56.048 117.5   208 -999
2008-10-21 08:14:40 51°13.623 2°56.048 117.5   208 -999
2008-10-21 08:14:50 51°13.623 2°56.048 117.5   208 -999
2008-10-21 08:15:00 51°13.623 2°56.048 111.2 0.1 324 -999
2008-10-21 08:15:10 51°13.623 2°56.047 111.2 0.1 324 -999
2008-10-21 08:15:20 51°13.625 2°56.042 111.2 0.1 324 -999
2008-10-21 08:15:30 51°13.628 2°56.034 111.2 0.1 324 -999
2008-10-21 08:15:40 51°13.631 2°56.023 111.2 0.1 324 -999
2008-10-21 08:15:50 51°13.635 2°56.011 111.2 0.1 324 -999
2008-10-21 08:16:00 51°13.639 2°55.997 111.5 3.6 295 -999
2008-10-21 08:16:10 51°13.643 2°55.982 111.5 3.6 295 -999
2008-10-21 08:16:20 51°13.647 2°55.966 111.5 3.6 295 -999
2008-10-21 08:16:30 51°13.652 2°55.949 111.5 3.6 295 -999
2008-10-21 08:16:40 51°13.657 2°55.931 111.5 3.6 295 -999
2008-10-21 08:16:50 51°13.662 2°55.911 111.5 3.6 295 -999
2008-10-21 08:17:00 51°13.667 2°55.894 113.2 4.59 296 -999
2008-10-21 08:17:10 51°13.673 2°55.876 113.2 4.59 296 -999
2008-10-21 08:17:20 51°13.677 2°55.859 113.2 4.59 296 -999
2008-10-21 08:17:30 51°13.682 2°55.843 113.2 4.59 296 -999
2008-10-21 08:17:40 51°13.686 2°55.828 113.2 4.59 296 -999
2008-10-21 08:17:50 51°13.69 2°55.813 113.2 4.59 296 -999
2008-10-21 08:18:00 51°13.692 2°55.799 99.7 3.2 287 -999
2008-10-21 08:18:10 51°13.695 2°55.786 99.7 3.2 287 -999
2008-10-21 08:18:20 51°13.696 2°55.774 99.7 3.2 287 -999
2008-10-21 08:18:30 51°13.698 2°55.763 99.7 3.2 287 -999
2008-10-21 08:18:40 51°13.698 2°55.753 99.7 3.2 287 -999
2008-10-21 08:18:50 51°13.698 2°55.744 99.7 3.2 287 -999
2008-10-21 08:19:00 51°13.698 2°55.737 77.5 1.6 272 -999
2008-10-21 08:19:10 51°13.698 2°55.731 77.5 1.6 272 -999
2008-10-21 08:19:20 51°13.698 2°55.727 77.5 1.6 272 -999
2008-10-21 08:19:30 51°13.698 2°55.723 77.5 1.6 272 -999
2008-10-21 08:19:40 51°13.699 2°55.721 77.5 1.6 272 -999
2008-10-21 08:19:50 51°13.7 2°55.72 77.5 1.6 272 -999
2008-10-21 08:20:00 51°13.701 2°55.72 43.5 0.59 354 -999
2008-10-21 08:20:10 51°13.703 2°55.721 43.5 0.59 354 -999
2008-10-21 08:20:20 51°13.707 2°55.722 43.5 0.59 354 -999
2008-10-21 08:20:30 51°13.711 2°55.722 43.5 0.59 354 -999
2008-10-21 08:20:40 51°13.716 2°55.721 43.5 0.59 354 -999
2008-10-21 08:20:50 51°13.723 2°55.719 43.5 0.59 354 -999
2008-10-21 08:21:00 51°13.731 2°55.714 343.1 3.39 339 -999
2008-10-21 08:21:10 51°13.742 2°55.707 343.1 3.39 339 -999
2008-10-21 08:21:20 51°13.754 2°55.696 343.1 3.39 339 -999
2008-10-21 08:21:30 51°13.769 2°55.685 343.1 3.39 339 -999
2008-10-21 08:21:40 51°13.785 2°55.671 343.1 3.39 339 -999
2008-10-21 08:21:50 51°13.802 2°55.657 343.1 3.39 339 -999
2008-10-21 08:22:00 51°13.822 2°55.641 334 7.4 335 -999
2008-10-21 08:22:10 51°13.839 2°55.629 334 7.4 335 -999
2008-10-21 08:22:20 51°13.858 2°55.614 334 7.4 335 -999
2008-10-21 08:22:30 51°13.88 2°55.597 334 7.4 335 -999
2008-10-21 08:22:40 51°13.898 2°55.583 334 7.4 335 -999
2008-10-21 08:22:50 51°13.918 2°55.567 334 7.4 335 -999
2008-10-21 08:23:00 51°13.939 2°55.551 334.1 8.19 334 -999
2008-10-21 08:23:10 51°13.959 2°55.535 334.1 8.19 334 -999
2008-10-21 08:23:20 51°13.98 2°55.52 334.1 8.19 334 -999
2008-10-21 08:23:30 51°14.001 2°55.505 334.1 8.19 334 -999
2008-10-21 08:23:40 51°14.021 2°55.489 334.1 8.19 334 -999
2008-10-21 08:23:50 51°14.042 2°55.473 334.1 8.19 334 -999
2008-10-21 08:24:00 51°14.062 2°55.456 333.3 8.3 335 -999
2008-10-21 08:24:10 51°14.085 2°55.439 333.3 8.3 335 -999
2008-10-21 08:24:20 51°14.103 2°55.425 333.3 8.3 335 -999
2008-10-21 08:24:30 51°14.124 2°55.409 333.3 8.3 335 -999
2008-10-21 08:24:40 51°14.146 2°55.391 333.3 8.3 335 -999
2008-10-21 08:24:50 51°14.166 2°55.372 333.3 8.3 335 -999
2008-10-21 08:25:00 51°14.183 2°55.355 330.3 8.3 328 -999
2008-10-21 08:25:10 51°14.202 2°55.334 330.3 8.3 328 -999
2008-10-21 08:25:20 51°14.221 2°55.313 330.3 8.3 328 -999
2008-10-21 08:25:30 51°14.24 2°55.286 330.3 8.3 328 -999
2008-10-21 08:25:40 51°14.255 2°55.263 330.3 8.3 328 -999
2008-10-21 08:25:50 51°14.272 2°55.237 330.3 8.3 328 -999
2008-10-21 08:26:00 51°14.288 2°55.21 313.8 8.4 313 -999
2008-10-21 08:26:10 51°14.304 2°55.182 313.8 8.4 313 -999
2008-10-21 08:26:20 51°14.319 2°55.155 313.8 8.4 313 -999
2008-10-21 08:26:30 51°14.337 2°55.124 313.8 8.4 313 -999
2008-10-21 08:26:40 51°14.35 2°55.099 313.8 8.4 313 -999
2008-10-21 08:26:50 51°14.365 2°55.071 313.8 8.4 313 -999
2008-10-21 08:27:00 51°14.38 2°55.039 307.8 8.09 306 -999
2008-10-21 08:27:10 51°14.391 2°55.012 307.8 8.09 306 -999
2008-10-21 08:27:20 51°14.402 2°54.979 307.8 8.09 306 -999
2008-10-21 08:27:30 51°14.409 2°54.95 307.8 8.09 306 -999
2008-10-21 08:27:40 51°14.415 2°54.917 307.8 8.09 306 -999
2008-10-21 08:27:50 51°14.418 2°54.88 307.8 8.09 306 -999
2008-10-21 08:28:00 51°14.419 2°54.85 275.5 7.5 272 -999
2008-10-21 08:28:10 51°14.419 2°54.817 275.5 7.5 272 -999
2008-10-21 08:28:20 51°14.416 2°54.784 275.5 7.5 272 -999
2008-10-21 08:28:30 51°14.412 2°54.751 275.5 7.5 272 -999
2008-10-21 08:28:40 51°14.406 2°54.719 275.5 7.5 272 -999
2008-10-21 08:28:50 51°14.4 2°54.687 275.5 7.5 272 -999
2008-10-21 08:29:00 51°14.392 2°54.655 247.9 7.7 248 -999
2008-10-21 08:29:10 51°14.383 2°54.62 247.9 7.7 248 -999
2008-10-21 08:29:20 51°14.376 2°54.592 247.9 7.7 248 -999
2008-10-21 08:29:30 51°14.368 2°54.56 247.9 7.7 248 -999
2008-10-21 08:29:40 51°14.358 2°54.526 247.9 7.7 248 -999
2008-10-21 08:29:50 51°14.35 2°54.494 247.9 7.7 248 -999
2008-10-21 08:30:00 51°14.343 2°54.465 246.3 7.7 248 -999
2008-10-21 08:30:10 51°14.335 2°54.434 246.3 7.7 248 -999
2008-10-21 08:30:20 51°14.325 2°54.4 246.3 7.7 248 -999
2008-10-21 08:30:30 51°14.318 2°54.368 246.3 7.7 248 -999
2008-10-21 08:30:40 51°14.311 2°54.339 246.3 7.7 248 -999
2008-10-21 08:30:50 51°14.302 2°54.308 246.3 7.7 248 -999
2008-10-21 08:31:00 51°14.293 2°54.274 246.5 7.7 248 -999
2008-10-21 08:31:10 51°14.286 2°54.242 246.5 7.7 248 -999
2008-10-21 08:31:20 51°14.278 2°54.213 246.5 7.7 248 -999
2008-10-21 08:31:30 51°14.27 2°54.182 246.5 7.7 248 -999
2008-10-21 08:31:40 51°14.261 2°54.147 246.5 7.7 248 -999
2008-10-21 08:31:50 51°14.253 2°54.116 246.5 7.7 248 -999
2008-10-21 08:32:00 51°14.245 2°54.084 246.6 7.59 248 -999
2008-10-21 08:32:10 51°14.237 2°54.054 246.6 7.59 248 -999
2008-10-21 08:32:20 51°14.23 2°54.026 246.6 7.59 248 -999
2008-10-21 08:32:30 51°14.221 2°53.996 246.6 7.59 248 -999
2008-10-21 08:32:40 51°14.21 2°53.964 246.6 7.59 248 -999
2008-10-21 08:32:50 51°14.2 2°53.934 246.6 7.59 248 -999
2008-10-21 08:33:00 51°14.19 2°53.904 240.5 7.7 242 -999
2008-10-21 08:33:10 51°14.18 2°53.875 240.5 7.7 242 -999
2008-10-21 08:33:20 51°14.171 2°53.848 240.5 7.7 242 -999
2008-10-21 08:33:30 51°14.16 2°53.819 240.5 7.7 242 -999
2008-10-21 08:33:40 51°14.148 2°53.787 240.5 7.7 242 -999
2008-10-21 08:33:50 51°14.138 2°53.757 240.5 7.7 242 -999
2008-10-21 08:34:00 51°14.127 2°53.728 239.4 7.7 240 -999
2008-10-21 08:34:10 51°14.117 2°53.698 239.4 7.7 240 -999
2008-10-21 08:34:20 51°14.107 2°53.672 239.4 7.7 240 -999
2008-10-21 08:34:30 51°14.095 2°53.641 239.4 7.7 240 -999
2008-10-21 08:34:40 51°14.085 2°53.613 239.4 7.7 240 -999
2008-10-21 08:34:50 51°14.075 2°53.588 239.4 7.7 240 -999
2008-10-21 08:35:00 51°14.065 2°53.559 239.8 7.59 241 -999
2008-10-21 08:35:10 51°14.054 2°53.527 239.8 7.59 241 -999
2008-10-21 08:35:20 51°14.043 2°53.498 239.8 7.59 241 -999
2008-10-21 08:35:30 51°14.033 2°53.468 239.8 7.59 241 -999
2008-10-21 08:35:40 51°14.023 2°53.438 239.8 7.59 241 -999
2008-10-21 08:35:50 51°14.013 2°53.408 239.8 7.59 241 -999
2008-10-21 08:36:00 51°14.003 2°53.378 241.1 7.7 242 -999
2008-10-21 08:36:10 51°13.992 2°53.348 241.1 7.7 242 -999
2008-10-21 08:36:20 51°13.982 2°53.318 241.1 7.7 242 -999
2008-10-21 08:36:30 51°13.971 2°53.288 241.1 7.7 242 -999
2008-10-21 08:36:40 51°13.961 2°53.258 241.1 7.7 242 -999
2008-10-21 08:36:50 51°13.951 2°53.228 241.1 7.7 242 -999
2008-10-21 08:37:00 51°13.94 2°53.198 240 7.79 240 -999
2008-10-21 08:37:10 51°13.929 2°53.169 240 7.79 240 -999
2008-10-21 08:37:20 51°13.919 2°53.139 240 7.79 240 -999
2008-10-21 08:37:30 51°13.908 2°53.109 240 7.79 240 -999
2008-10-21 08:37:40 51°13.898 2°53.083 240 7.79 240 -999
2008-10-21 08:37:50 51°13.887 2°53.051 240 7.79 240 -999
2008-10-21 08:38:00 51°13.876 2°53.022 239.4 7.59 241 -999
2008-10-21 08:38:10 51°13.864 2°52.991 239.4 7.59 241 -999
2008-10-21 08:38:20 51°13.854 2°52.963 239.4 7.59 241 -999
2008-10-21 08:38:30 51°13.845 2°52.937 239.4 7.59 241 -999
2008-10-21 08:38:40 51°13.834 2°52.904 239.4 7.59 241 -999
2008-10-21 08:38:50 51°13.823 2°52.875 239.4 7.59 241 -999
2008-10-21 08:39:00 51°13.814 2°52.848 240.5 7.7 240 -999
2008-10-21 08:39:10 51°13.802 2°52.817 240.5 7.7 240 -999
2008-10-21 08:39:20 51°13.792 2°52.787 240.5 7.7 240 -999
2008-10-21 08:39:30 51°13.782 2°52.759 240.5 7.7 240 -999
2008-10-21 08:39:40 51°13.771 2°52.73 240.5 7.7 240 -999
2008-10-21 08:39:50 51°13.761 2°52.701 240.5 7.7 240 -999
2008-10-21 08:40:00 51°13.75 2°52.672 240.5 7.5 239 -999
2008-10-21 08:40:10 51°13.74 2°52.644 240.5 7.5 239 -999
2008-10-21 08:40:20 51°13.73 2°52.614 240.5 7.5 239 -999
2008-10-21 08:40:30 51°13.72 2°52.585 240.5 7.5 239 -999
2008-10-21 08:40:40 51°13.71 2°52.556 240.5 7.5 239 -999
2008-10-21 08:40:50 51°13.7 2°52.526 240.5 7.5 239 -999
2008-10-21 08:41:00 51°13.691 2°52.496 242.4 7.59 244 -999
2008-10-21 08:41:10 51°13.681 2°52.466 242.4 7.59 244 -999
2008-10-21 08:41:20 51°13.671 2°52.435 242.4 7.59 244 -999
2008-10-21 08:41:30 51°13.662 2°52.406 242.4 7.59 244 -999
2008-10-21 08:41:40 51°13.653 2°52.379 242.4 7.59 244 -999
2008-10-21 08:41:50 51°13.642 2°52.346 242.4 7.59 244 -999
2008-10-21 08:42:00 51°13.632 2°52.315 242 7.7 243 -999
2008-10-21 08:42:10 51°13.622 2°52.284 242 7.7 243 -999
2008-10-21 08:42:20 51°13.613 2°52.254 242 7.7 243 -999
2008-10-21 08:42:30 51°13.604 2°52.222 242 7.7 243 -999
2008-10-21 08:42:40 51°13.595 2°52.191 242 7.7 243 -999
2008-10-21 08:42:50 51°13.586 2°52.16 242 7.7 243 -999
2008-10-21 08:43:00 51°13.576 2°52.13 244 7.7 244 -999
2008-10-21 08:43:10 51°13.567 2°52.101 244 7.7 244 -999
2008-10-21 08:43:20 51°13.558 2°52.073 244 7.7 244 -999
2008-10-21 08:43:30 51°13.549 2°52.044 244 7.7 244 -999
2008-10-21 08:43:40 51°13.54 2°52.015 244 7.7 244 -999
2008-10-21 08:43:50 51°13.531 2°51.985 244 7.7 244 -999
2008-10-21 08:44:00 51°13.523 2°51.955 243.9 7.4 244 -999
2008-10-21 08:44:10 51°13.513 2°51.927 243.9 7.4 244 -999
2008-10-21 08:44:20 51°13.5 2°51.908 243.9 7.4 244 -999
2008-10-21 08:44:30 51°13.486 2°51.896 243.9 7.4 244 -999
2008-10-21 08:44:40 51°13.471 2°51.892 243.9 7.4 244 -999
2008-10-21 08:44:50 51°13.456 2°51.896 243.9 7.4 244 -999
2008-10-21 08:45:00 51°13.444 2°51.907 156.9 5 145 -999
2008-10-21 08:45:10 51°13.436 2°51.924 156.9 5 145 -999
2008-10-21 08:45:20 51°13.431 2°51.943 156.9 5 145 -999
2008-10-21 08:45:30 51°13.43 2°51.964 156.9 5 145 -999
2008-10-21 08:45:40 51°13.434 2°51.984 156.9 5 145 -999
2008-10-21 08:45:50 51°13.441 2°52.003 156.9 5 145 -999
2008-10-21 08:46:00 51°13.451 2°52.024 53 6 55 -999
2008-10-21 08:46:10 51°13.462 2°52.049 53 6 55 -999
2008-10-21 08:46:20 51°13.474 2°52.076 53 6 55 -999
2008-10-21 08:46:30 51°13.487 2°52.106 53 6 55 -999
2008-10-21 08:46:40 51°13.5 2°52.138 53 6 55 -999
2008-10-21 08:46:50 51°13.513 2°52.169 53 6 55 -999
2008-10-21 08:47:00 51°13.526 2°52.2 54.8 8.59 58 -999
2008-10-21 08:47:10 51°13.539 2°52.231 54.8 8.59 58 -999
2008-10-21 08:47:20 51°13.552 2°52.261 54.8 8.59 58 -999
2008-10-21 08:47:30 51°13.565 2°52.292 54.8 8.59 58 -999
2008-10-21 08:47:40 51°13.577 2°52.322 54.8 8.59 58 -999
2008-10-21 08:47:50 51°13.59 2°52.352 54.8 8.59 58 -999
2008-10-21 08:48:00 51°13.602 2°52.381 56.2 8.09 56 -999
2008-10-21 08:48:10 51°13.615 2°52.411 56.2 8.09 56 -999
2008-10-21 08:48:20 51°13.627 2°52.44 56.2 8.09 56 -999
2008-10-21 08:48:30 51°13.639 2°52.47 56.2 8.09 56 -999
2008-10-21 08:48:40 51°13.651 2°52.499 56.2 8.09 56 -999
2008-10-21 08:48:50 51°13.664 2°52.528 56.2 8.09 56 -999
2008-10-21 08:49:00 51°13.677 2°52.556 53.7 8 53 -999
2008-10-21 08:49:10 51°13.69 2°52.584 53.7 8 53 -999
2008-10-21 08:49:20 51°13.702 2°52.613 53.7 8 53 -999
2008-10-21 08:49:30 51°13.716 2°52.64 53.7 8 53 -999
2008-10-21 08:49:40 51°13.729 2°52.668 53.7 8 53 -999
2008-10-21 08:49:50 51°13.742 2°52.696 53.7 8 53 -999
2008-10-21 08:50:00 51°13.755 2°52.725 54.7 8 50 -999
2008-10-21 08:50:10 51°13.767 2°52.754 54.7 8 50 -999
2008-10-21 08:50:20 51°13.779 2°52.783 54.7 8 50 -999
2008-10-21 08:50:30 51°13.792 2°52.812 54.7 8 50 -999
2008-10-21 08:50:40 51°13.805 2°52.84 54.7 8 50 -999
2008-10-21 08:50:50 51°13.817 2°52.868 54.7 8 50 -999
2008-10-21 08:51:00 51°13.83 2°52.896 53.6 8 57 -999
2008-10-21 08:51:10 51°13.844 2°52.925 53.6 8 57 -999
2008-10-21 08:51:20 51°13.857 2°52.953 53.6 8 57 -999
2008-10-21 08:51:30 51°13.87 2°52.981 53.6 8 57 -999
2008-10-21 08:51:40 51°13.883 2°53.01 53.6 8 57 -999
2008-10-21 08:51:50 51°13.896 2°53.038 53.6 8 57 -999
2008-10-21 08:52:00 51°13.909 2°53.067 53.2 7.9 53 -999
2008-10-21 08:52:10 51°13.922 2°53.095 53.2 7.9 53 -999
2008-10-21 08:52:20 51°13.936 2°53.123 53.2 7.9 53 -999
2008-10-21 08:52:30 51°13.949 2°53.151 53.2 7.9 53 -999
2008-10-21 08:52:40 51°13.962 2°53.18 53.2 7.9 53 -999
2008-10-21 08:52:50 51°13.975 2°53.208 53.2 7.9 53 -999
2008-10-21 08:53:00 51°13.988 2°53.237 53.5 7.9 55 -999
2008-10-21 08:53:10 51°14 2°53.265 53.5 7.9 55 -999
2008-10-21 08:53:20 51°14.013 2°53.293 53.5 7.9 55 -999
2008-10-21 08:53:30 51°14.026 2°53.321 53.5 7.9 55 -999
2008-10-21 08:53:40 51°14.039 2°53.35 53.5 7.9 55 -999
2008-10-21 08:53:50 51°14.052 2°53.378 53.5 7.9 55 -999
2008-10-21 08:54:00 51°14.065 2°53.407 53.5 8 56 -999
2008-10-21 08:54:10 51°14.078 2°53.435 53.5 8 56 -999
2008-10-21 08:54:20 51°14.091 2°53.463 53.5 8 56 -999
2008-10-21 08:54:30 51°14.104 2°53.492 53.5 8 56 -999
2008-10-21 08:54:40 51°14.117 2°53.52 53.5 8 56 -999
2008-10-21 08:54:50 51°14.129 2°53.549 53.5 8 56 -999
2008-10-21 08:55:00 51°14.143 2°53.577 53.7 8 53 -999
2008-10-21 08:55:10 51°14.155 2°53.605 53.7 8 53 -999
2008-10-21 08:55:20 51°14.168 2°53.634 53.7 8 53 -999
2008-10-21 08:55:30 51°14.181 2°53.662 53.7 8 53 -999
2008-10-21 08:55:40 51°14.194 2°53.691 53.7 8 53 -999
2008-10-21 08:55:50 51°14.206 2°53.72 53.7 8 53 -999
2008-10-21 08:56:00 51°14.22 2°53.747 52.5 7.79 51 -999
2008-10-21 08:56:10 51°14.235 2°53.772 52.5 7.79 51 -999
2008-10-21 08:56:20 51°14.25 2°53.795 52.5 7.79 51 -999
2008-10-21 08:56:30 51°14.266 2°53.818 52.5 7.79 51 -999
2008-10-21 08:56:40 51°14.283 2°53.84 52.5 7.79 51 -999
2008-10-21 08:56:50 51°14.301 2°53.861 52.5 7.79 51 -999
2008-10-21 08:57:00 51°14.318 2°53.883 38.5 7.79 35 -999
2008-10-21 08:57:10 51°14.335 2°53.904 38.5 7.79 35 -999
2008-10-21 08:57:20 51°14.352 2°53.925 38.5 7.79 35 -999
2008-10-21 08:57:30 51°14.37 2°53.945 38.5 7.79 35 -999
2008-10-21 08:57:40 51°14.388 2°53.966 38.5 7.79 35 -999
2008-10-21 08:57:50 51°14.405 2°53.987 38.5 7.79 35 -999
2008-10-21 08:58:00 51°14.423 2°54.008 37 7.9 38 -999
2008-10-21 08:58:10 51°14.44 2°54.029 37 7.9 38 -999
2008-10-21 08:58:20 51°14.458 2°54.05 37 7.9 38 -999
2008-10-21 08:58:30 51°14.476 2°54.07 37 7.9 38 -999
2008-10-21 08:58:40 51°14.493 2°54.091 37 7.9 38 -999
2008-10-21 08:58:50 51°14.51 2°54.112 37 7.9 38 -999
2008-10-21 08:59:00 51°14.528 2°54.132 37.2 7.9 36 -999
2008-10-21 08:59:10 51°14.546 2°54.153 37.2 7.9 36 -999
2008-10-21 08:59:20 51°14.564 2°54.174 37.2 7.9 36 -999
2008-10-21 08:59:30 51°14.582 2°54.194 37.2 7.9 36 -999
2008-10-21 08:59:40 51°14.6 2°54.216 37.2 7.9 36 -999
2008-10-21 08:59:50 51°14.618 2°54.238 37.2 7.9 36 -999
2008-10-21 09:00:00 51°14.636 2°54.259 37.3 8.09 39 -999
2008-10-21 09:00:10 51°14.653 2°54.281 37.3 8.09 39 -999
2008-10-21 09:00:20 51°14.672 2°54.302 37.3 8.09 39 -999
2008-10-21 09:00:30 51°14.689 2°54.324 37.3 8.09 39 -999
2008-10-21 09:00:40 51°14.708 2°54.345 37.3 8.09 39 -999
2008-10-21 09:00:50 51°14.725 2°54.367 37.3 8.09 39 -999
2008-10-21 09:01:00 51°14.743 2°54.389 38.2 8.09 36 -999
2008-10-21 09:01:10 51°14.761 2°54.41 38.2 8.09 36 -999
2008-10-21 09:01:20 51°14.779 2°54.431 38.2 8.09 36 -999
2008-10-21 09:01:30 51°14.798 2°54.45 38.2 8.09 36 -999
2008-10-21 09:01:40 51°14.818 2°54.466 38.2 8.09 36 -999
2008-10-21 09:01:50 51°14.837 2°54.481 38.2 8.09 36 -999
2008-10-21 09:02:00 51°14.858 2°54.494 24.6 8 20 -999
2008-10-21 09:02:10 51°14.878 2°54.507 24.6 8 20 -999
2008-10-21 09:02:20 51°14.899 2°54.519 24.6 8 20 -999
2008-10-21 09:02:30 51°14.92 2°54.532 24.6 8 20 -999
2008-10-21 09:02:40 51°14.941 2°54.543 24.6 8 20 -999
2008-10-21 09:02:50 51°14.962 2°54.555 24.6 8 20 -999
2008-10-21 09:03:00 51°14.983 2°54.569 22 8.09 24 -999
2008-10-21 09:03:10 51°15.004 2°54.582 22 8.09 24 -999
2008-10-21 09:03:20 51°15.024 2°54.597 22 8.09 24 -999
2008-10-21 09:03:30 51°15.045 2°54.612 22 8.09 24 -999
2008-10-21 09:03:40 51°15.065 2°54.628 22 8.09 24 -999
2008-10-21 09:03:50 51°15.085 2°54.644 22 8.09 24 -999
2008-10-21 09:04:00 51°15.106 2°54.659 26.1 8.09 25 -999
2008-10-21 09:04:10 51°15.126 2°54.674 26.1 8.09 25 -999
2008-10-21 09:04:20 51°15.146 2°54.69 26.1 8.09 25 -999
2008-10-21 09:04:30 51°15.167 2°54.707 26.1 8.09 25 -999
2008-10-21 09:04:40 51°15.187 2°54.723 26.1 8.09 25 -999
2008-10-21 09:04:50 51°15.208 2°54.739 26.1 8.09 25 -999
2008-10-21 09:05:00 51°15.228 2°54.755 26.1 8.19 26 -999
2008-10-21 09:05:10 51°15.248 2°54.77 26.1 8.19 26 -999
2008-10-21 09:05:20 51°15.269 2°54.786 26.1 8.19 26 -999
2008-10-21 09:05:30 51°15.289 2°54.803 26.1 8.19 26 -999
2008-10-21 09:05:40 51°15.31 2°54.818 26.1 8.19 26 -999
2008-10-21 09:05:50 51°15.33 2°54.835 26.1 8.19 26 -999
2008-10-21 09:06:00 51°15.35 2°54.85 25.5 8.19 24 -999
2008-10-21 09:06:10 51°15.37 2°54.866 25.5 8.19 24 -999
2008-10-21 09:06:20 51°15.391 2°54.882 25.5 8.19 24 -999
2008-10-21 09:06:30 51°15.411 2°54.898 25.5 8.19 24 -999
2008-10-21 09:06:40 51°15.432 2°54.914 25.5 8.19 24 -999
2008-10-21 09:06:50 51°15.452 2°54.929 25.5 8.19 24 -999
2008-10-21 09:07:00 51°15.472 2°54.945 26.8 8.3 26 -999
2008-10-21 09:07:10 51°15.493 2°54.962 26.8 8.3 26 -999
2008-10-21 09:07:20 51°15.513 2°54.978 26.8 8.3 26 -999
2008-10-21 09:07:30 51°15.533 2°54.994 26.8 8.3 26 -999
2008-10-21 09:07:40 51°15.554 2°55.011 26.8 8.3 26 -999
2008-10-21 09:07:50 51°15.574 2°55.027 26.8 8.3 26 -999
2008-10-21 09:08:00 51°15.594 2°55.043 26.8 8.19 26 -999
2008-10-21 09:08:10 51°15.614 2°55.061 26.8 8.19 26 -999
2008-10-21 09:08:20 51°15.635 2°55.077 26.8 8.19 26 -999
2008-10-21 09:08:30 51°15.655 2°55.092 26.8 8.19 26 -999
2008-10-21 09:08:40 51°15.675 2°55.108 26.8 8.19 26 -999
2008-10-21 09:08:50 51°15.695 2°55.124 26.8 8.19 26 -999
2008-10-21 09:09:00 51°15.716 2°55.139 26.8 8 24 -999
2008-10-21 09:09:10 51°15.736 2°55.155 26.8 8 24 -999
2008-10-21 09:09:20 51°15.755 2°55.171 26.8 8 24 -999
2008-10-21 09:09:30 51°15.775 2°55.187 26.8 8 24 -999
2008-10-21 09:09:40 51°15.794 2°55.203 26.8 8 24 -999
2008-10-21 09:09:50 51°15.814 2°55.218 26.8 8 24 -999
2008-10-21 09:10:00 51°15.834 2°55.234 27.6 7.9 26 -999
2008-10-21 09:10:10 51°15.853 2°55.25 27.6 7.9 26 -999
2008-10-21 09:10:20 51°15.873 2°55.265 27.6 7.9 26 -999
2008-10-21 09:10:30 51°15.892 2°55.281 27.6 7.9 26 -999
2008-10-21 09:10:40 51°15.912 2°55.296 27.6 7.9 26 -999
2008-10-21 09:10:50 51°15.931 2°55.311 27.6 7.9 26 -999
2008-10-21 09:11:00 51°15.951 2°55.326 26.3 7.9 26 -999
2008-10-21 09:11:10 51°15.971 2°55.341 26.3 7.9 26 -999
2008-10-21 09:11:20 51°15.99 2°55.356 26.3 7.9 26 -999
2008-10-21 09:11:30 51°16.01 2°55.372 26.3 7.9 26 -999
2008-10-21 09:11:40 51°16.029 2°55.388 26.3 7.9 26 -999
2008-10-21 09:11:50 51°16.049 2°55.402 26.3 7.9 26 -999
2008-10-21 09:12:00 51°16.068 2°55.417 27 7.79 27 -999
2008-10-21 09:12:10 51°16.087 2°55.432 27 7.79 27 -999
2008-10-21 09:12:20 51°16.107 2°55.447 27 7.79 27 -999
2008-10-21 09:12:30 51°16.126 2°55.463 27 7.79 27 -999
2008-10-21 09:12:40 51°16.146 2°55.478 27 7.79 27 -999
2008-10-21 09:12:50 51°16.165 2°55.494 27 7.79 27 -999
2008-10-21 09:13:00 51°16.184 2°55.509 25.8 7.79 27 -999
2008-10-21 09:13:10 51°16.204 2°55.523 25.8 7.79 27 -999
2008-10-21 09:13:20 51°16.223 2°55.539 25.8 7.79 27 -999
2008-10-21 09:13:30 51°16.242 2°55.554 25.8 7.79 27 -999
2008-10-21 09:13:40 51°16.261 2°55.57 25.8 7.79 27 -999
2008-10-21 09:13:50 51°16.28 2°55.586 25.8 7.79 27 -999
2008-10-21 09:14:00 51°16.298 2°55.605 32 7.7 38 -999
2008-10-21 09:14:10 51°16.314 2°55.627 32 7.7 38 -999
2008-10-21 09:14:20 51°16.33 2°55.649 32 7.7 38 -999
2008-10-21 09:14:30 51°16.346 2°55.672 32 7.7 38 -999
2008-10-21 09:14:40 51°16.362 2°55.686 32 7.7 38 -999
2008-10-21 09:14:50 51°16.379 2°55.693 32 7.7 38 -999
2008-10-21 09:15:00 51°16.395 2°55.689 4.5 5.79 346 -999
2008-10-21 09:15:10 51°16.41 2°55.678 4.5 5.79 346 -999
2008-10-21 09:15:20 51°16.421 2°55.662 4.5 5.79 346 -999
2008-10-21 09:15:30 51°16.428 2°55.641 4.5 5.79 346 -999
2008-10-21 09:15:40 51°16.431 2°55.618 4.5 5.79 346 -999
2008-10-21 09:15:50 51°16.43 2°55.594 4.5 5.79 346 -999
2008-10-21 09:16:00 51°16.424 2°55.573 256.3 5.2 240 -999
2008-10-21 09:16:10 51°16.414 2°55.557 256.3 5.2 240 -999
2008-10-21 09:16:20 51°16.401 2°55.548 256.3 5.2 240 -999
2008-10-21 09:16:30 51°16.385 2°55.544 256.3 5.2 240 -999
2008-10-21 09:16:40 51°16.362 2°55.539 256.3 5.2 240 -999
2008-10-21 09:16:50 51°16.339 2°55.529 256.3 5.2 240 -999
2008-10-21 09:17:00 51°16.316 2°55.512 197.4 9 205 -999
2008-10-21 09:17:10 51°16.294 2°55.492 197.4 9 205 -999
2008-10-21 09:17:20 51°16.273 2°55.467 197.4 9 205 -999
2008-10-21 09:17:30 51°16.25 2°55.443 197.4 9 205 -999
2008-10-21 09:17:40 51°16.227 2°55.419 197.4 9 205 -999
2008-10-21 09:17:50 51°16.204 2°55.393 197.4 9 205 -999
2008-10-21 09:18:00 51°16.182 2°55.365 216.1 9.9 219 -999
2008-10-21 09:18:10 51°16.161 2°55.337 216.1 9.9 219 -999
2008-10-21 09:18:20 51°16.141 2°55.309 216.1 9.9 219 -999
2008-10-21 09:18:30 51°16.123 2°55.279 216.1 9.9 219 -999
2008-10-21 09:18:40 51°16.106 2°55.251 216.1 9.9 219 -999
2008-10-21 09:18:50 51°16.089 2°55.226 216.1 9.9 219 -999
2008-10-21 09:19:00 51°16.072 2°55.2 224.9 8.09 226 -999
2008-10-21 09:19:10 51°16.057 2°55.176 224.9 8.09 226 -999
2008-10-21 09:19:20 51°16.041 2°55.152 224.9 8.09 226 -999
2008-10-21 09:19:30 51°16.026 2°55.128 224.9 8.09 226 -999
2008-10-21 09:19:40 51°16.011 2°55.104 224.9 8.09 226 -999
2008-10-21 09:19:50 51°15.996 2°55.082 224.9 8.09 226 -999
2008-10-21 09:20:00 51°15.981 2°55.059 224.5 7.59 221 -999
2008-10-21 09:20:10 51°15.965 2°55.038 224.5 7.59 221 -999
2008-10-21 09:20:20 51°15.948 2°55.016 224.5 7.59 221 -999
2008-10-21 09:20:30 51°15.932 2°54.994 224.5 7.59 221 -999
2008-10-21 09:20:40 51°15.915 2°54.973 224.5 7.59 221 -999
2008-10-21 09:20:50 51°15.898 2°54.953 224.5 7.59 221 -999
2008-10-21 09:21:00 51°15.881 2°54.932 218.4 7.7 219 -999
2008-10-21 09:21:10 51°15.865 2°54.91 218.4 7.7 219 -999
2008-10-21 09:21:20 51°15.85 2°54.891 218.4 7.7 219 -999
2008-10-21 09:21:30 51°15.831 2°54.867 218.4 7.7 219 -999
2008-10-21 09:21:40 51°15.815 2°54.847 218.4 7.7 219 -999
2008-10-21 09:21:50 51°15.798 2°54.827 218.4 7.7 219 -999
2008-10-21 09:22:00 51°15.782 2°54.81 216.4 7.59 214 -999
2008-10-21 09:22:10 51°15.763 2°54.789 216.4 7.59 214 -999
2008-10-21 09:22:20 51°15.745 2°54.77 216.4 7.59 214 -999
2008-10-21 09:22:30 51°15.727 2°54.752 216.4 7.59 214 -999
2008-10-21 09:22:40 51°15.709 2°54.734 216.4 7.59 214 -999
2008-10-21 09:22:50 51°15.691 2°54.718 216.4 7.59 214 -999
2008-10-21 09:23:00 51°15.672 2°54.702 208.6 7.59 208 -999
2008-10-21 09:23:10 51°15.654 2°54.687 208.6 7.59 208 -999
2008-10-21 09:23:20 51°15.635 2°54.671 208.6 7.59 208 -999
2008-10-21 09:23:30 51°15.617 2°54.658 208.6 7.59 208 -999
2008-10-21 09:23:40 51°15.595 2°54.641 208.6 7.59 208 -999
2008-10-21 09:23:50 51°15.575 2°54.627 208.6 7.59 208 -999
2008-10-21 09:24:00 51°15.555 2°54.614 202 7.9 200 -999
2008-10-21 09:24:10 51°15.537 2°54.603 202 7.9 200 -999
2008-10-21 09:24:20 51°15.514 2°54.59 202 7.9 200 -999
2008-10-21 09:24:30 51°15.493 2°54.579 202 7.9 200 -999
2008-10-21 09:24:40 51°15.473 2°54.567 202 7.9 200 -999
2008-10-21 09:24:50 51°15.452 2°54.557 202 7.9 200 -999
2008-10-21 09:25:00 51°15.431 2°54.549 196.1 7.59 193 -999
2008-10-21 09:25:10 51°15.411 2°54.547 196.1 7.59 193 -999
2008-10-21 09:25:20 51°15.394 2°54.552 196.1 7.59 193 -999
2008-10-21 09:25:30 51°15.378 2°54.566 196.1 7.59 193 -999
2008-10-21 09:25:40 51°15.365 2°54.587 196.1 7.59 193 -999
2008-10-21 09:25:50 51°15.354 2°54.61 196.1 7.59 193 -999
2008-10-21 09:26:00 51°15.344 2°54.631 121.7 6.7 132 -999
2008-10-21 09:26:10 51°15.329 2°54.65 121.7 6.7 132 -999
2008-10-21 09:26:20 51°15.311 2°54.664 121.7 6.7 132 -999
2008-10-21 09:26:30 51°15.291 2°54.67 121.7 6.7 132 -999
2008-10-21 09:26:40 51°15.269 2°54.673 121.7 6.7 132 -999
2008-10-21 09:26:50 51°15.245 2°54.676 121.7 6.7 132 -999
2008-10-21 09:27:00 51°15.22 2°54.678 175 10 175 -999
2008-10-21 09:27:10 51°15.19 2°54.68 175 10 175 -999
2008-10-21 09:27:20 51°15.16 2°54.681 175 10 175 -999
2008-10-21 09:27:30 51°15.126 2°54.681 175 10 175 -999
2008-10-21 09:27:40 51°15.093 2°54.681 175 10 175 -999
2008-10-21 09:27:50 51°15.064 2°54.68 175 10 175 -999
2008-10-21 09:28:00 51°15.032 2°54.684 175 11.8 177 -999
2008-10-21 09:28:10 51°14.995 2°54.687 175 11.8 177 -999
2008-10-21 09:28:20 51°14.963 2°54.692 175 11.8 177 -999
2008-10-21 09:28:30 51°14.93 2°54.693 175 11.8 177 -999
2008-10-21 09:28:40 51°14.896 2°54.697 175 11.8 177 -999
2008-10-21 09:28:50 51°14.867 2°54.699 175 11.8 177 -999
2008-10-21 09:29:00 51°14.83 2°54.705 173.1 12.09 176 -999
2008-10-21 09:29:10 51°14.797 2°54.711 173.1 12.09 176 -999
2008-10-21 09:29:20 51°14.765 2°54.718 173.1 12.09 176 -999
2008-10-21 09:29:30 51°14.736 2°54.728 173.1 12.09 176 -999
2008-10-21 09:29:40 51°14.704 2°54.743 173.1 12.09 176 -999
2008-10-21 09:29:50 51°14.67 2°54.76 173.1 12.09 176 -999
2008-10-21 09:30:00 51°14.638 2°54.778 154.1 11.9 162 -999
2008-10-21 09:30:10 51°14.608 2°54.8 154.1 11.9 162 -999
2008-10-21 09:30:20 51°14.582 2°54.823 154.1 11.9 162 -999
2008-10-21 09:30:30 51°14.554 2°54.849 154.1 11.9 162 -999
2008-10-21 09:30:40 51°14.523 2°54.881 154.1 11.9 162 -999
2008-10-21 09:30:50 51°14.496 2°54.909 154.1 11.9 162 -999
2008-10-21 09:31:00 51°14.471 2°54.933 142.5 11.59 149 -999
2008-10-21 09:31:10 51°14.442 2°54.967 142.5 11.59 149 -999
2008-10-21 09:31:20 51°14.418 2°55.002 142.5 11.59 149 -999
2008-10-21 09:31:30 51°14.395 2°55.039 142.5 11.59 149 -999
2008-10-21 09:31:40 51°14.372 2°55.077 142.5 11.59 149 -999